This is the latest recevied weather packets stored in our database for station/object DL7GAI-7. If no packets are shown the sender has not sent any weather packets the latest 10 day(s).
| Time | Temp. | Humidity | Pressure | Rain* | Wind** | Luminosity | Snow |
|---|---|---|---|---|---|---|---|
| 1777444485 | 12.22° C | 52% | 1018.3 hPa | 0 mm | 2.68 m/s, 45° | - | - |
| 1777443665 | 12.22° C | 52% | 1018.3 hPa | 0 mm | 2.68 m/s, 45° | - | - |
| 1777442815 | 12.22° C | 52% | 1018.3 hPa | 0 mm | 2.68 m/s, 45° | - | - |
| 1777441940 | 12.22° C | 51% | 1017.9 hPa | 0 mm | 2.24 m/s, 45° | - | - |
| 1777441160 | 12.22° C | 51% | 1017.9 hPa | 0 mm | 2.24 m/s, 45° | - | - |
| 1777440267 | 12.78° C | 50% | 1017.5 hPa | 0 mm | 2.24 m/s, 45° | - | - |
| 1777439450 | 12.78° C | 50% | 1017.5 hPa | 0 mm | 2.24 m/s, 45° | - | - |
| 1777438720 | 13.33° C | 47% | 1017.2 hPa | 0 mm | 4.02 m/s, 45° | - | - |
| 1777437850 | 13.33° C | 47% | 1017.2 hPa | 0 mm | 4.02 m/s, 45° | - | - |
| 1777437024 | 13.33° C | 46% | 1017 hPa | 0 mm | 3.13 m/s, 45° | - | - |
| 1777436125 | 13.33° C | 46% | 1017 hPa | 0 mm | 3.13 m/s, 45° | - | - |
| 1777435330 | 13.33° C | 46% | 1016.7 hPa | 0 mm | 2.24 m/s, 45° | - | - |
| 1777434440 | 13.33° C | 46% | 1016.7 hPa | 0 mm | 2.24 m/s, 45° | - | - |
| 1777433645 | 13.33° C | 45% | 1016.6 hPa | 0 mm | 2.68 m/s, 45° | - | - |
| 1777432815 | 13.33° C | 45% | 1016.6 hPa | 0 mm | 2.68 m/s, 45° | - | - |
| 1777432080 | 13.33° C | 45% | 1016.6 hPa | 0 mm | 2.68 m/s, 45° | - | - |
| 1777431271 | 13.33° C | 45% | 1016.4 hPa | 0 mm | 1.79 m/s, 45° | - | - |
| 1777430440 | 13.33° C | 45% | 1016.4 hPa | 0 mm | 1.79 m/s, 45° | - | - |
| 1777429590 | 13.33° C | 47% | 1016.3 hPa | 0 mm | 2.24 m/s, 90° | - | - |
| 1777428778 | 13.33° C | 47% | 1016.3 hPa | 0 mm | 2.24 m/s, 90° | - | - |
| 1777427925 | 14.44° C | 43% | 1016.2 hPa | 0 mm | 2.68 m/s, 90° | - | - |
| 1777427113 | 14.44° C | 43% | 1016.2 hPa | 0 mm | 2.68 m/s, 90° | - | - |
| 1777426311 | 14.44° C | 43% | 1016.1 hPa | 0 mm | 4.47 m/s, 45° | - | - |
| 1777425495 | 14.44° C | 43% | 1016.1 hPa | 0 mm | 4.47 m/s, 45° | - | - |
| 1777424740 | 15° C | 42% | 1016.3 hPa | 0 mm | 4.92 m/s, 45° | - | - |
* Rain latest hour (hover to see other rain measurements)
** Current wind speed in m/s (hover to see current wind gust speed)